This is the latest recevied weather packets stored in our database for station/object KQ4WWD. If no packets are shown the sender has not sent any weather packets the latest 10 day(s).
| Time | Temp. | Humidity | Pressure | Rain* | Wind** | Luminosity | Snow |
|---|---|---|---|---|---|---|---|
| 1788092988 | 25° C | 93% | 1018.2 hPa | 0 mm | - | 119 W/m² | - |
| 1788092687 | 25° C | 93% | 1018.2 hPa | 0 mm | - | 104 W/m² | - |
| 1788092382 | 25° C | 93% | 1018.4 hPa | 0 mm | - | 89 W/m² | - |
| 1788092077 | 24.44° C | 93% | 1018.2 hPa | 0 mm | - | 41 W/m² | - |
| 1788091772 | 23.89° C | 93% | 1018.4 hPa | 0 mm | - | 42 W/m² | - |
| 1788091467 | 23.89° C | 94% | 1018.2 hPa | 0 mm | - | 39 W/m² | - |
| 1788091164 | 23.89° C | 94% | 1018.2 hPa | 0 mm | - | 31 W/m² | - |
| 1788090860 | 23.89° C | 94% | 1017.9 hPa | 0 mm | - | 31 W/m² | - |
| 1788090555 | 23.89° C | 94% | 1017.7 hPa | 0 mm | - | 32 W/m² | - |
| 1788090252 | 23.89° C | 94% | 1017.5 hPa | 0 mm | - | 33 W/m² | - |
| 1788089951 | 23.89° C | 94% | 1017.5 hPa | 0 mm | - | 29 W/m² | - |
| 1788089652 | 23.89° C | 94% | 1017.5 hPa | 0 mm | - | 25 W/m² | - |
| 1788089347 | 23.89° C | 94% | 1017.4 hPa | 0 mm | - | 17 W/m² | - |
| 1788089043 | 23.89° C | 94% | 1017.5 hPa | 0 mm | - | 13 W/m² | - |
| 1788088739 | 23.89° C | 93% | 1017.4 hPa | 0 mm | - | 8 W/m² | - |
| 1788088434 | 23.89° C | 93% | 1017.6 hPa | 0 mm | - | 6 W/m² | - |
| 1788088129 | 23.89° C | 93% | 1017.5 hPa | 0 mm | - | 2 W/m² | - |
| 1788087826 | 23.89° C | 93% | 1017.3 hPa | 0 mm | - | 0 W/m² | - |
| 1788087524 | 23.89° C | 93% | 1017.3 hPa | 0 mm | - | 0 W/m² | - |
| 1788087221 | 23.89° C | 93% | 1017.3 hPa | 0 mm | - | 0 W/m² | - |
| 1788086917 | 23.89° C | 93% | 1017.2 hPa | 0 mm | - | 0 W/m² | - |
| 1788086614 | 23.89° C | 93% | 1017.3 hPa | 0 mm | - | 0 W/m² | - |
| 1788086312 | 23.89° C | 93% | 1017.1 hPa | 0 mm | - | 0 W/m² | - |
| 1788086009 | 23.89° C | 93% | 1016.9 hPa | 0 mm | - | 0 W/m² | - |
| 1788085706 | 23.89° C | 93% | 1016.8 hPa | 0 mm | - | 0 W/m² | - |
* Rain latest hour (hover to see other rain measurements)
** Current wind speed in m/s (hover to see current wind gust speed)